| time (UTC) | temp C | wind direction | speed KPH | gust KPH | rain 1hr cm | rain 24hr cm | rain mn cm | humidity % | barometer mb |
| 20260507225334 | 15 | 62 | 3.2 | 4.8 | 0.00 | 0.28 | 0.28 | 57 | 1011.0 |
| 20260507224831 | 15 | 145 | 0.0 | 4.8 | 0.00 | 0.28 | 0.28 | 56 | 1010.7 |
| 20260507224328 | 15 | 133 | 1.6 | 3.2 | 0.00 | 0.28 | 0.28 | 56 | 1010.7 |
| 20260507223824 | 15 | 219 | 4.8 | 4.8 | 0.00 | 0.28 | 0.28 | 56 | 1010.7 |
| 20260507223320 | 16 | 77 | 3.2 | 9.7 | 0.00 | 0.28 | 0.28 | 55 | 1010.7 |
| 20260507222817 | 16 | 60 | 4.8 | 6.4 | 0.00 | 0.28 | 0.28 | 54 | 1010.6 |
| 20260507222314 | 17 | 192 | 1.6 | 6.4 | 0.00 | 0.28 | 0.28 | 51 | 1010.6 |
| 20260507221811 | 17 | 162 | 4.8 | 6.4 | 0.00 | 0.28 | 0.28 | 51 | 1010.5 |
| 20260507221307 | 17 | 318 | 1.6 | 11.3 | 0.00 | 0.28 | 0.28 | 50 | 1010.6 |
| 20260507220803 | 17 | 324 | 3.2 | 4.8 | 0.00 | 0.28 | 0.28 | 51 | 1010.6 |
| 20260507220302 | 17 | 310 | 4.8 | 6.4 | 0.00 | 0.28 | 0.28 | 49 | 1010.6 |
| 20260507215757 | 17 | 191 | 0.0 | 4.8 | 0.00 | 0.28 | 0.28 | 51 | 1010.6 |
| 20260507215255 | 17 | 156 | 3.2 | 6.4 | 0.00 | 0.28 | 0.28 | 51 | 1010.4 |
| 20260507214752 | 17 | 149 | 0.0 | 3.2 | 0.00 | 0.28 | 0.28 | 50 | 1010.4 |
| 20260507214249 | 17 | 174 | 1.6 | 3.2 | 0.00 | 0.28 | 0.28 | 51 | 1010.7 |
| 20260507213744 | 17 | 127 | 0.0 | 6.4 | 0.00 | 0.28 | 0.28 | 51 | 1010.5 |
| 20260507213242 | 17 | 118 | 0.0 | 3.2 | 0.00 | 0.28 | 0.28 | 51 | 1010.6 |
| 20260507212738 | 17 | 80 | 3.2 | 4.8 | 0.00 | 0.28 | 0.28 | 50 | 1010.7 |
| 20260507212235 | 17 | 241 | 3.2 | 3.2 | 0.00 | 0.28 | 0.28 | 49 | 1010.8 |
| 20260507211731 | 17 | 164 | 1.6 | 9.7 | 0.00 | 0.28 | 0.28 | 52 | 1010.7 |
| 20260507211227 | 17 | 1 | 6.4 | 6.4 | 0.00 | 0.28 | 0.28 | 51 | 1010.7 |
| 20260507210725 | 17 | 128 | 1.6 | 6.4 | 0.00 | 0.28 | 0.28 | 51 | 1010.6 |
| 20260507210221 | 17 | 100 | 3.2 | 4.8 | 0.00 | 0.28 | 0.28 | 51 | 1010.7 |
| 20260507205718 | 17 | 134 | 3.2 | 4.8 | 0.00 | 0.28 | 0.28 | 51 | 1010.7 |
| 20260507205214 | 17 | 219 | 3.2 | 6.4 | 0.00 | 0.28 | 0.28 | 51 | 1010.7 |
| 20260507204711 | 17 | 162 | 0.0 | 6.4 | 0.00 | 0.28 | 0.28 | 50 | 1010.8 |
| 20260507204209 | 17 | 144 | 1.6 | 4.8 | 0.00 | 0.28 | 0.28 | 50 | 1010.7 |
| 20260507203707 | 17 | 65 | 3.2 | 6.4 | 0.00 | 0.28 | 0.28 | 50 | 1010.8 |
| 20260507203204 | 17 | 85 | 3.2 | 6.4 | 0.00 | 0.28 | 0.28 | 51 | 1010.6 |
| 20260507202659 | 17 | 61 | 1.6 | 4.8 | 0.00 | 0.28 | 0.28 | 52 | 1010.5 |
| 20260507202155 | 17 | 146 | 3.2 | 9.7 | 0.00 | 0.28 | 0.28 | 50 | 1010.6 |
| 20260507201650 | 17 | 165 | 1.6 | 4.8 | 0.00 | 0.28 | 0.28 | 51 | 1010.9 |
| 20260507201148 | 17 | 164 | 1.6 | 6.4 | 0.00 | 0.28 | 0.28 | 46 | 1010.8 |
| 20260507200644 | 17 | 164 | 0.0 | 3.2 | 0.00 | 0.28 | 0.28 | 49 | 1010.9 |
| 20260507200140 | 17 | 206 | 0.0 | 4.8 | 0.00 | 0.28 | 0.28 | 47 | 1010.6 |
| 20260507195637 | 17 | 125 | 0.0 | 4.8 | 0.00 | 0.28 | 0.28 | 49 | 1010.6 |
| 20260507195134 | 17 | 109 | 0.0 | 4.8 | 0.00 | 0.28 | 0.28 | 49 | 1010.7 |
| 20260507194631 | 17 | 125 | 1.6 | 6.4 | 0.00 | 0.28 | 0.28 | 47 | 1010.6 |
| 20260507194126 | 17 | 130 | 1.6 | 4.8 | 0.00 | 0.28 | 0.28 | 47 | 1010.7 |
| 20260507193623 | 17 | 119 | 0.0 | 3.2 | 0.00 | 0.28 | 0.28 | 48 | 1010.9 |
| 20260507193121 | 16 | 136 | 1.6 | 4.8 | 0.00 | 0.28 | 0.28 | 50 | 1011.0 |
| 20260507192617 | 16 | 104 | 3.2 | 6.4 | 0.00 | 0.28 | 0.28 | 51 | 1011.2 |
| 20260507192114 | 16 | 286 | 3.2 | 11.3 | 0.00 | 0.28 | 0.28 | 51 | 1011.5 |
| 20260507191609 | 16 | 74 | 0.0 | 6.4 | 0.00 | 0.28 | 0.28 | 51 | 1011.3 |
| 20260507191106 | 16 | 70 | 3.2 | 3.2 | 0.00 | 0.28 | 0.28 | 50 | 1011.3 |
| 20260507190603 | 16 | 160 | 3.2 | 4.8 | 0.00 | 0.28 | 0.28 | 50 | 1011.5 |
| 20260507185600 | 16 | 77 | 3.2 | 4.8 | 0.00 | 0.28 | 0.28 | 52 | 1011.8 |
| 20260507185056 | 16 | 65 | 1.6 | 4.8 | 0.00 | 0.28 | 0.28 | 51 | 1011.9 |
| 20260507184555 | 16 | 9 | 3.2 | 4.8 | 0.00 | 0.28 | 0.28 | 52 | 1011.4 |
| 20260507184052 | 16 | 78 | 3.2 | 3.2 | 0.00 | 0.28 | 0.28 | 54 | 1011.5 |
| 20260507183548 | 16 | 159 | 0.0 | 3.2 | 0.00 | 0.28 | 0.28 | 54 | 1011.7 |
| 20260507183045 | 16 | 60 | 3.2 | 4.8 | 0.00 | 0.28 | 0.28 | 53 | 1012.1 |
| 20260507182542 | 16 | 129 | 1.6 | 3.2 | 0.00 | 0.28 | 0.28 | 52 | 1012.0 |
| 20260507182037 | 16 | 125 | 1.6 | 6.4 | 0.00 | 0.28 | 0.28 | 52 | 1012.3 |
| 20260507181535 | 15 | 130 | 1.6 | 3.2 | 0.00 | 0.28 | 0.28 | 53 | 1011.8 |
| 20260507181031 | 15 | 124 | 1.6 | 4.8 | 0.00 | 0.28 | 0.28 | 54 | 1012.0 |
| 20260507180527 | 15 | 85 | 3.2 | 3.2 | 0.00 | 0.28 | 0.28 | 53 | 1012.3 |
| 20260507180024 | 15 | 135 | 0.0 | 3.2 | 0.00 | 0.28 | 0.28 | 53 | 1012.2 |
| 20260507175520 | 15 | 104 | 0.0 | 3.2 | 0.00 | 0.28 | 0.28 | 55 | 1012.4 |
| 20260507175018 | 16 | 69 | 1.6 | 3.2 | 0.00 | 0.28 | 0.28 | 52 | 1012.3 |
| 20260507174515 | 16 | 129 | 0.0 | 4.8 | 0.00 | 0.28 | 0.28 | 56 | 1012.2 |
| 20260507174013 | 15 | 107 | 0.0 | 0.0 | 0.00 | 0.28 | 0.28 | 59 | 1012.3 |
| 20260507173509 | 15 | 128 | 1.6 | 3.2 | 0.00 | 0.28 | 0.28 | 59 | 1012.2 |
| 20260507173007 | 15 | 106 | 1.6 | 1.6 | 0.00 | 0.28 | 0.28 | 57 | 1012.9 |
| 20260507172503 | 15 | 147 | 0.0 | 1.6 | 0.00 | 0.28 | 0.28 | 56 | 1013.0 |
| 20260507172000 | 15 | 133 | 0.0 | 1.6 | 0.00 | 0.28 | 0.28 | 57 | 1013.0 |
| 20260507171455 | 15 | 105 | 0.0 | 0.0 | 0.00 | 0.28 | 0.28 | 61 | 1013.1 |
| 20260507170953 | 14 | 123 | 0.0 | 0.0 | 0.13 | 0.28 | 0.28 | 58 | 1012.9 |
| 20260507170449 | 15 | 150 | 0.0 | 3.2 | 0.13 | 0.28 | 0.28 | 55 | 1013.0 |
| 20260507165945 | 15 | 143 | 0.0 | 3.2 | 0.00 | 0.25 | 0.25 | 51 | 1013.3 |
| 20260507165442 | 16 | 186 | 1.6 | 1.6 | 0.00 | 0.25 | 0.25 | 49 | 1013.3 |
| 20260507164938 | 16 | 132 | 1.6 | 4.8 | 0.00 | 0.25 | 0.25 | 48 | 1013.0 |
| 20260507164435 | 16 | 141 | 0.0 | 3.2 | 0.00 | 0.25 | 0.25 | 47 | 1013.2 |
| 20260507163931 | 16 | 119 | 1.6 | 3.2 | 0.00 | 0.25 | 0.25 | 49 | 1013.3 |
| 20260507163429 | 15 | 169 | 3.2 | 3.2 | 0.00 | 0.25 | 0.25 | 50 | 1013.3 |
| 20260507162926 | 15 | 151 | 0.0 | 3.2 | 0.00 | 0.25 | 0.25 | 48 | 1013.3 |
| 20260507162421 | 15 | 158 | 0.0 | 1.6 | 0.00 | 0.25 | 0.25 | 48 | 1013.4 |
| 20260507161919 | 16 | 175 | 0.0 | 1.6 | 0.00 | 0.25 | 0.25 | 46 | 1013.5 |
| 20260507161414 | 15 | 150 | 0.0 | 0.0 | 0.00 | 0.25 | 0.25 | 48 | 1013.7 |
| 20260507160912 | 15 | 173 | 0.0 | 1.6 | 0.00 | 0.25 | 0.25 | 47 | 1013.6 |
| 20260507160407 | 15 | 159 | 1.6 | 4.8 | 0.00 | 0.25 | 0.25 | 48 | 1013.7 |
| 20260507155904 | 15 | 148 | 1.6 | 1.6 | 0.00 | 0.25 | 0.25 | 49 | 1013.6 |
| 20260507155359 | 15 | 170 | 0.0 | 1.6 | 0.00 | 0.25 | 0.25 | 49 | 1014.0 |
| 20260507154856 | 15 | 191 | 1.6 | 1.6 | 0.00 | 0.25 | 0.25 | 48 | 1013.9 |
| 20260507154354 | 15 | 190 | 0.0 | 0.0 | 0.00 | 0.25 | 0.25 | 52 | 1013.9 |
| 20260507153851 | 15 | 132 | 1.6 | 1.6 | 0.00 | 0.25 | 0.25 | 51 | 1013.9 |
| 20260507153347 | 15 | 161 | 0.0 | 3.2 | 0.00 | 0.25 | 0.25 | 48 | 1014.0 |
| 20260507152843 | 15 | 155 | 0.0 | 1.6 | 0.00 | 0.25 | 0.25 | 49 | 1014.1 |
| 20260507152340 | 15 | 161 | 0.0 | 1.6 | 0.00 | 0.25 | 0.25 | 51 | 1014.0 |
| 20260507151836 | 15 | 213 | 1.6 | 1.6 | 0.00 | 0.25 | 0.25 | 49 | 1013.9 |
| 20260507151332 | 14 | 250 | 1.6 | 1.6 | 0.00 | 0.25 | 0.25 | 50 | 1014.0 |
| 20260507150830 | 14 | 170 | 0.0 | 1.6 | 0.00 | 0.25 | 0.25 | 53 | 1014.1 |
| 20260507150326 | 13 | 165 | 0.0 | 1.6 | 0.00 | 0.25 | 0.25 | 52 | 1014.2 |
| 20260507145822 | 13 | 168 | 0.0 | 1.6 | 0.00 | 0.25 | 0.25 | 51 | 1014.2 |
| 20260507145319 | 13 | 156 | 0.0 | 0.0 | 0.00 | 0.25 | 0.25 | 55 | 1014.4 |
| 20260507144816 | 13 | 163 | 0.0 | 1.6 | 0.00 | 0.25 | 0.25 | 59 | 1014.3 |
| 20260507144313 | 13 | 166 | 0.0 | 1.6 | 0.00 | 0.25 | 0.25 | 58 | 1014.4 |
| 20260507143809 | 13 | 181 | 1.6 | 1.6 | 0.00 | 0.25 | 0.25 | 58 | 1014.5 |
| 20260507143307 | 13 | 163 | 0.0 | 3.2 | 0.00 | 0.25 | 0.25 | 57 | 1014.7 |
| 20260507142803 | 13 | 158 | 0.0 | 1.6 | 0.00 | 0.25 | 0.25 | 60 | 1014.7 |
| 20260507142259 | 13 | 171 | 0.0 | 1.6 | 0.00 | 0.25 | 0.25 | 59 | 1014.5 |
| 20260507141756 | 13 | 188 | 1.6 | 1.6 | 0.00 | 0.25 | 0.25 | 60 | 1014.5 |
| 20260507141253 | 13 | 159 | 0.0 | 0.0 | 0.00 | 0.25 | 0.25 | 61 | 1014.4 |
| 20260507140749 | 13 | 167 | 0.0 | 1.6 | 0.00 | 0.25 | 0.25 | 60 | 1014.6 |
| 20260507140247 | 13 | 151 | 0.0 | 0.0 | 0.00 | 0.25 | 0.25 | 62 | 1014.5 |
| 20260507135744 | 13 | 158 | 0.0 | 0.0 | 0.00 | 0.25 | 0.25 | 62 | 1014.5 |
| 20260507135241 | 13 | 169 | 0.0 | 1.6 | 0.00 | 0.25 | 0.25 | 63 | 1014.7 |
| 20260507134737 | 13 | 181 | 0.0 | 1.6 | 0.00 | 0.25 | 0.25 | 62 | 1014.9 |
| 20260507134234 | 13 | 188 | 1.6 | 3.2 | 0.00 | 0.25 | 0.25 | 63 | 1014.7 |
| 20260507133730 | 13 | 167 | 0.0 | 1.6 | 0.00 | 0.25 | 0.25 | 68 | 1014.7 |
| 20260507133227 | 13 | 165 | 0.0 | 1.6 | 0.00 | 0.25 | 0.25 | 68 | 1014.6 |
| 20260507132724 | 13 | 164 | 0.0 | 0.0 | 0.00 | 0.25 | 0.25 | 66 | 1014.7 |
| 20260507132221 | 13 | 164 | 0.0 | 3.2 | 0.00 | 0.25 | 0.25 | 65 | 1014.7 |
| 20260507131717 | 13 | 184 | 0.0 | 3.2 | 0.00 | 0.25 | 0.25 | 63 | 1014.7 |
| 20260507131215 | 13 | 160 | 0.0 | 1.6 | 0.00 | 0.25 | 0.25 | 61 | 1014.7 |
| 20260507130711 | 13 | 153 | 1.6 | 3.2 | 0.00 | 0.25 | 0.25 | 60 | 1014.5 |
| 20260507130209 | 13 | 227 | 0.0 | 1.6 | 0.00 | 0.25 | 0.25 | 60 | 1014.7 |
| 20260507125708 | 13 | 133 | 1.6 | 1.6 | 0.00 | 0.25 | 0.25 | 58 | 1014.5 |
| 20260507125205 | 13 | 146 | 1.6 | 9.7 | 0.00 | 0.25 | 0.25 | 57 | 1014.4 |
| 20260507124701 | 13 | 161 | 0.0 | 6.4 | 0.00 | 0.25 | 0.25 | 58 | 1014.1 |
| 20260507124158 | 13 | 154 | 1.6 | 4.8 | 0.00 | 0.25 | 0.25 | 60 | 1014.6 |
| 20260507123657 | 13 | 142 | 0.0 | 4.8 | 0.00 | 0.25 | 0.25 | 68 | 1014.5 |
| 20260507123154 | 13 | 147 | 0.0 | 1.6 | 0.00 | 0.25 | 0.25 | 68 | 1014.7 |
| 20260507122649 | 13 | 157 | 0.0 | 0.0 | 0.00 | 0.25 | 0.25 | 68 | 1014.9 |
| 20260507122145 | 13 | 186 | 1.6 | 4.8 | 0.00 | 0.25 | 0.25 | 67 | 1014.4 |
| 20260507121641 | 13 | 150 | 0.0 | 1.6 | 0.00 | 0.25 | 0.25 | 68 | 1014.4 |
| 20260507121137 | 13 | 173 | 1.6 | 4.8 | 0.00 | 0.25 | 0.25 | 68 | 1014.5 |
| 20260507120633 | 13 | 157 | 0.0 | 1.6 | 0.00 | 0.25 | 0.25 | 68 | 1014.3 |
| 20260507120130 | 14 | 150 | 0.0 | 1.6 | 0.00 | 0.25 | 0.25 | 67 | 1014.7 |
| 20260507115626 | 13 | 148 | 0.0 | 0.0 | 0.00 | 0.25 | 0.25 | 68 | 1014.3 |
| 20260507115122 | 13 | 157 | 0.0 | 3.2 | 0.00 | 0.25 | 0.25 | 67 | 1014.3 |
| 20260507114618 | 13 | 131 | 1.6 | 4.8 | 0.00 | 0.25 | 0.25 | 66 | 1014.1 |
| 20260507114116 | 13 | 181 | 0.0 | 1.6 | 0.00 | 0.25 | 0.25 | 67 | 1014.0 |
| 20260507113613 | 13 | 134 | 0.0 | 1.6 | 0.00 | 0.25 | 0.25 | 67 | 1014.0 |
| 20260507113110 | 13 | 151 | 0.0 | 1.6 | 0.00 | 0.25 | 0.25 | 69 | 1014.2 |
| 20260507112608 | 13 | 149 | 0.0 | 1.6 | 0.00 | 0.25 | 0.25 | 69 | 1014.0 |
| 20260507112104 | 13 | 157 | 0.0 | 1.6 | 0.00 | 0.25 | 0.25 | 70 | 1014.3 |
| 20260507111601 | 13 | 164 | 0.0 | 0.0 | 0.00 | 0.25 | 0.25 | 71 | 1014.0 |
| 20260507111058 | 13 | 168 | 0.0 | 3.2 | 0.00 | 0.25 | 0.25 | 70 | 1014.1 |
| 20260507110554 | 13 | 148 | 0.0 | 3.2 | 0.00 | 0.25 | 0.25 | 70 | 1013.9 |
| 20260507110051 | 13 | 151 | 0.0 | 4.8 | 0.00 | 0.25 | 0.25 | 70 | 1013.9 |
| 20260507105548 | 13 | 149 | 0.0 | 3.2 | 0.00 | 0.25 | 0.25 | 73 | 1013.9 |
| 20260507105044 | 13 | 172 | 1.6 | 1.6 | 0.00 | 0.25 | 0.25 | 73 | 1014.0 |
| 20260507104541 | 13 | 152 | 0.0 | 0.0 | 0.00 | 0.25 | 0.25 | 75 | 1013.7 |
| 20260507104037 | 13 | 169 | 0.0 | 1.6 | 0.00 | 0.25 | 0.25 | 77 | 1013.8 |
| 20260507103534 | 13 | 165 | 0.0 | 0.0 | 0.00 | 0.25 | 0.25 | 80 | 1013.8 |
| 20260507103031 | 13 | 159 | 0.0 | 1.6 | 0.00 | 0.25 | 0.25 | 79 | 1013.8 |
| 20260507102527 | 13 | 150 | 0.0 | 3.2 | 0.00 | 0.25 | 0.25 | 80 | 1013.7 |
| 20260507102023 | 13 | 156 | 1.6 | 6.4 | 0.00 | 0.25 | 0.25 | 80 | 1013.6 |
| 20260507101519 | 13 | 134 | 3.2 | 4.8 | 0.00 | 0.25 | 0.25 | 81 | 1013.6 |
| 20260507101015 | 13 | 159 | 1.6 | 4.8 | 0.00 | 0.25 | 0.25 | 82 | 1013.4 |
| 20260507100513 | 13 | 192 | 6.4 | 6.4 | 0.00 | 0.25 | 0.25 | 82 | 1013.1 |
| 20260507100011 | 13 | 143 | 0.0 | 1.6 | 0.00 | 0.25 | 0.25 | 83 | 1013.4 |
| 20260507095508 | 13 | 157 | 0.0 | 1.6 | 0.00 | 0.25 | 0.25 | 82 | 1013.4 |
| 20260507095005 | 13 | 160 | 0.0 | 3.2 | 0.00 | 0.25 | 0.25 | 82 | 1013.4 |
| 20260507094501 | 13 | 159 | 0.0 | 0.0 | 0.00 | 0.25 | 0.25 | 83 | 1013.5 |
| 20260507093958 | 13 | 165 | 1.6 | 4.8 | 0.00 | 0.25 | 0.25 | 82 | 1013.7 |
| 20260507093456 | 13 | 146 | 1.6 | 4.8 | 0.00 | 0.25 | 0.25 | 82 | 1013.5 |
| 20260507092954 | 13 | 123 | 4.8 | 6.4 | 0.00 | 0.25 | 0.25 | 82 | 1013.3 |
| 20260507092450 | 13 | 176 | 1.6 | 4.8 | 0.00 | 0.25 | 0.25 | 83 | 1013.1 |
| 20260507091947 | 13 | 177 | 3.2 | 4.8 | 0.00 | 0.25 | 0.25 | 83 | 1013.2 |
| 20260507091444 | 13 | 137 | 1.6 | 4.8 | 0.00 | 0.25 | 0.25 | 83 | 1013.2 |
| 20260507090939 | 13 | 182 | 1.6 | 4.8 | 0.00 | 0.25 | 0.25 | 83 | 1013.4 |
| 20260507090435 | 13 | 163 | 3.2 | 4.8 | 0.00 | 0.25 | 0.25 | 83 | 1013.4 |
| 20260507085932 | 13 | 154 | 0.0 | 1.6 | 0.00 | 0.25 | 0.25 | 85 | 1013.3 |
| 20260507085429 | 13 | 170 | 0.0 | 1.6 | 0.00 | 0.25 | 0.25 | 85 | 1013.4 |
| 20260507084927 | 13 | 220 | 3.2 | 6.4 | 0.00 | 0.25 | 0.25 | 85 | 1013.4 |
| 20260507084423 | 13 | 176 | 3.2 | 4.8 | 0.00 | 0.25 | 0.25 | 86 | 1013.0 |
| 20260507083915 | 13 | 156 | 0.0 | 0.0 | 0.00 | 0.25 | 0.25 | 87 | 1013.0 |
| 20260507083411 | 13 | 193 | 1.6 | 3.2 | 0.00 | 0.25 | 0.25 | 87 | 1013.1 |
| 20260507082908 | 13 | 155 | 0.0 | 1.6 | 0.00 | 0.25 | 0.25 | 89 | 1013.2 |
| 20260507082404 | 13 | 156 | 0.0 | 0.0 | 0.00 | 0.25 | 0.25 | 88 | 1013.1 |
| 20260507081901 | 13 | 129 | 0.0 | 0.0 | 0.00 | 0.25 | 0.25 | 88 | 1012.9 |
| 20260507081357 | 13 | 225 | 3.2 | 3.2 | 0.00 | 0.25 | 0.25 | 88 | 1012.9 |
| 20260507080854 | 13 | 187 | 1.6 | 3.2 | 0.00 | 0.25 | 0.25 | 88 | 1012.8 |
| 20260507080350 | 13 | 145 | 0.0 | 1.6 | 0.00 | 0.25 | 0.25 | 87 | 1012.6 |
| 20260507075846 | 13 | 152 | 0.0 | 4.8 | 0.00 | 0.25 | 0.25 | 85 | 1012.5 |
| 20260507075341 | 13 | 212 | 1.6 | 3.2 | 0.00 | 0.25 | 0.25 | 86 | 1012.7 |
| 20260507074838 | 13 | 141 | 3.2 | 3.2 | 0.00 | 0.25 | 0.25 | 85 | 1012.5 |
| 20260507074336 | 13 | 220 | 1.6 | 3.2 | 0.00 | 0.25 | 0.25 | 85 | 1012.5 |
| 20260507073833 | 13 | 222 | 1.6 | 11.3 | 0.00 | 0.25 | 0.25 | 87 | 1012.5 |
| 20260507073329 | 13 | 157 | 0.0 | 0.0 | 0.00 | 0.25 | 0.25 | 90 | 1012.2 |
| 20260507072826 | 14 | 162 | 0.0 | 1.6 | 0.00 | 0.25 | 0.25 | 91 | 1012.2 |
| 20260507072323 | 14 | 157 | 0.0 | 0.0 | 0.00 | 0.25 | 0.25 | 91 | 1012.1 |
| 20260507071821 | 14 | 186 | 1.6 | 3.2 | 0.00 | 0.25 | 0.25 | 91 | 1012.4 |
| 20260507071318 | 14 | 166 | 0.0 | 0.0 | 0.00 | 0.25 | 0.25 | 92 | 1012.1 |
| 20260507070814 | 14 | 159 | 0.0 | 1.6 | 0.00 | 0.25 | 0.25 | 91 | 1012.1 |
| 20260507070312 | 14 | 167 | 0.0 | 1.6 | 0.00 | 0.25 | 0.25 | 91 | 1012.3 |
| 20260507065808 | 14 | 161 | 0.0 | 1.6 | 0.00 | 0.25 | 0.25 | 91 | 1012.2 |
| 20260507065306 | 14 | 150 | 0.0 | 0.0 | 0.00 | 0.25 | 0.25 | 92 | 1012.2 |
| 20260507064802 | 14 | 176 | 1.6 | 3.2 | 0.00 | 0.25 | 0.25 | 92 | 1012.2 |
| 20260507064301 | 14 | 164 | 0.0 | 1.6 | 0.00 | 0.25 | 0.25 | 92 | 1012.2 |
| 20260507063758 | 14 | 153 | 0.0 | 0.0 | 0.00 | 0.25 | 0.25 | 92 | 1012.1 |
| 20260507063255 | 14 | 153 | 0.0 | 0.0 | 0.00 | 0.25 | 0.25 | 92 | 1012.3 |
| 20260507062752 | 14 | 158 | 0.0 | 0.0 | 0.00 | 0.25 | 0.25 | 92 | 1012.4 |
| 20260507062249 | 14 | 194 | 1.6 | 3.2 | 0.00 | 0.25 | 0.25 | 92 | 1012.1 |
| 20260507061747 | 14 | 160 | 0.0 | 4.8 | 0.00 | 0.25 | 0.25 | 92 | 1011.9 |
| 20260507061244 | 14 | 152 | 0.0 | 1.6 | 0.00 | 0.25 | 0.25 | 92 | 1012.1 |
| 20260507060743 | 14 | 151 | 0.0 | 3.2 | 0.18 | 0.25 | 0.25 | 92 | 1012.3 |
| 20260507060239 | 14 | 132 | 1.6 | 1.6 | 0.18 | 0.25 | 0.25 | 92 | 1011.8 |
| 20260507055735 | 14 | 156 | 0.0 | 4.8 | 0.00 | 0.23 | 0.23 | 91 | 1012.0 |
| 20260507055230 | 14 | 148 | 0.0 | 3.2 | 0.00 | 0.23 | 0.23 | 91 | 1012.3 |
| 20260507054727 | 14 | 182 | 0.0 | 1.6 | 0.13 | 0.23 | 0.23 | 91 | 1012.2 |
| 20260507054224 | 15 | 168 | 1.6 | 1.6 | 0.13 | 0.23 | 0.23 | 90 | 1012.1 |
| 20260507053722 | 15 | 191 | 0.0 | 1.6 | 0.00 | 0.20 | 0.20 | 90 | 1012.2 |
| 20260507053219 | 15 | 156 | 0.0 | 0.0 | 0.00 | 0.20 | 0.20 | 90 | 1012.2 |
| 20260507052718 | 15 | 171 | 0.0 | 1.6 | 0.00 | 0.20 | 0.20 | 89 | 1012.4 |
| 20260507052214 | 15 | 177 | 1.6 | 3.2 | 0.00 | 0.20 | 0.20 | 89 | 1011.9 |
| 20260507051712 | 15 | 174 | 0.0 | 1.6 | 0.00 | 0.20 | 0.20 | 89 | 1011.8 |
| 20260507051208 | 15 | 146 | 0.0 | 1.6 | 0.00 | 0.20 | 0.20 | 89 | 1012.3 |
| 20260507050705 | 15 | 157 | 0.0 | 1.6 | 0.00 | 0.20 | 0.20 | 89 | 1012.4 |
| 20260507050202 | 15 | 166 | 1.6 | 1.6 | 0.00 | 0.20 | 0.20 | 88 | 1012.4 |
| 20260507045658 | 15 | 156 | 0.0 | 1.6 | 0.18 | 0.20 | 0.20 | 89 | 1012.2 |
| 20260507045156 | 15 | 159 | 0.0 | 1.6 | 0.30 | 0.20 | 0.20 | 88 | 1012.1 |
| 20260507044652 | 16 | 179 | 3.2 | 6.4 | 0.30 | 0.18 | 0.18 | 87 | 1013.0 |
| 20260507044149 | 16 | 158 | 1.6 | 1.6 | 0.48 | 0.15 | 0.15 | 87 | 1011.7 |
| 20260507043645 | 16 | 172 | 0.0 | 0.0 | 0.61 | 0.13 | 0.13 | 85 | 1012.3 |
| 20260507043142 | 17 | 179 | 0.0 | 0.0 | 0.36 | 0.05 | 0.05 | 83 | 1012.5 |
| 20260507042638 | 17 | 190 | 0.0 | 3.2 | 0.18 | 0.03 | 0.03 | 81 | 1012.5 |
| 20260507042132 | 17 | 138 | 0.0 | 1.6 | 0.00 | 0.00 | 0.00 | 79 | 1012.1 |
| 20260507041630 | 17 | 150 | 0.0 | 0.0 | 0.00 | 0.00 | 0.00 | 79 | 1012.0 |
| 20260507041121 | 17 | 186 | 0.0 | 1.6 | 0.00 | 0.00 | 0.00 | 78 | 1012.4 |
| 20260507040618 | 17 | 169 | 1.6 | 3.2 | 0.00 | 0.00 | 0.00 | 79 | 1012.4 |
| 20260507040115 | 17 | 177 | 1.6 | 9.7 | 0.00 | 0.00 | 0.00 | 79 | 1011.9 |
| 20260507035610 | 17 | 155 | 0.0 | 1.6 | 0.00 | 0.58 | 0.58 | 78 | 1011.9 |
| 20260507035101 | 18 | 196 | 0.0 | 1.6 | 0.00 | 0.58 | 0.58 | 76 | 1012.1 |
| 20260507034558 | 18 | 162 | 1.6 | 3.2 | 0.00 | 0.58 | 0.58 | 73 | 1011.7 |
| 20260507034056 | 18 | 218 | 0.0 | 6.4 | 0.00 | 0.58 | 0.58 | 72 | 1012.2 |
| 20260507033554 | 18 | 243 | 3.2 | 3.2 | 0.00 | 0.58 | 0.58 | 73 | 1011.8 |
| 20260507033051 | 18 | 157 | 0.0 | 1.6 | 0.00 | 0.58 | 0.58 | 74 | 1011.6 |
| 20260507032548 | 18 | 158 | 1.6 | 1.6 | 0.00 | 0.58 | 0.58 | 74 | 1011.8 |
| 20260507032044 | 18 | 151 | 0.0 | 1.6 | 0.00 | 0.58 | 0.58 | 76 | 1011.8 |
| 20260507031541 | 18 | 177 | 0.0 | 0.0 | 0.00 | 0.58 | 0.58 | 76 | 1011.6 |
| 20260507031038 | 18 | 162 | 0.0 | 1.6 | 0.00 | 0.58 | 0.58 | 76 | 1011.1 |
| 20260507030534 | 18 | 170 | 0.0 | 1.6 | 0.00 | 0.58 | 0.58 | 76 | 1011.1 |
| 20260507030032 | 18 | 159 | 0.0 | 1.6 | 0.00 | 0.58 | 0.58 | 76 | 1011.1 |
| 20260507025529 | 18 | 156 | 0.0 | 4.8 | 0.00 | 0.58 | 0.58 | 75 | 1011.3 |
| 20260507025027 | 19 | 157 | 0.0 | 1.6 | 0.00 | 0.58 | 0.58 | 76 | 1011.3 |
| 20260507024524 | 19 | 153 | 0.0 | 3.2 | 0.00 | 0.58 | 0.58 | 77 | 1011.1 |
| 20260507024021 | 19 | 170 | 0.0 | 3.2 | 0.00 | 0.58 | 0.58 | 78 | 1011.3 |
| 20260507023516 | 19 | 205 | 0.0 | 1.6 | 0.00 | 0.58 | 0.58 | 79 | 1011.3 |
| 20260507023014 | 19 | 181 | 0.0 | 3.2 | 0.00 | 0.58 | 0.58 | 80 | 1010.8 |
| 20260507022510 | 20 | 157 | 0.0 | 1.6 | 0.00 | 0.58 | 0.58 | 82 | 1010.9 |
| 20260507022006 | 20 | 153 | 0.0 | 1.6 | 0.00 | 0.58 | 0.58 | 82 | 1010.7 |
| 20260507021501 | 20 | 179 | 1.6 | 4.8 | 0.00 | 0.58 | 0.58 | 83 | 1010.9 |
| 20260507020958 | 20 | 151 | 1.6 | 4.8 | 0.00 | 0.58 | 0.58 | 82 | 1010.8 |
| 20260507020455 | 20 | 146 | 0.0 | 0.0 | 0.00 | 0.58 | 0.58 | 83 | 1010.7 |
| 20260507015952 | 20 | 173 | 0.0 | 0.0 | 0.00 | 0.58 | 0.58 | 82 | 1010.6 |
| 20260507015451 | 20 | 154 | 0.0 | 0.0 | 0.00 | 0.58 | 0.58 | 82 | 1010.5 |
| 20260507014948 | 20 | 178 | 0.0 | 0.0 | 0.00 | 0.58 | 0.58 | 82 | 1010.8 |
| 20260507014444 | 20 | 169 | 0.0 | 0.0 | 0.00 | 0.58 | 0.58 | 82 | 1010.6 |
| 20260507013940 | 20 | 162 | 0.0 | 0.0 | 0.00 | 0.58 | 0.58 | 82 | 1010.5 |
| 20260507013437 | 20 | 161 | 0.0 | 0.0 | 0.00 | 0.58 | 0.58 | 82 | 1010.7 |
| 20260507012935 | 20 | 177 | 0.0 | 0.0 | 0.00 | 0.58 | 0.58 | 82 | 1010.9 |
| 20260507012431 | 20 | 152 | 0.0 | 0.0 | 0.00 | 0.58 | 0.58 | 82 | 1010.9 |
| 20260507011928 | 20 | 143 | 0.0 | 0.0 | 0.00 | 0.58 | 0.58 | 81 | 1010.8 |
| 20260507011425 | 20 | 156 | 0.0 | 0.0 | 0.00 | 0.58 | 0.58 | 81 | 1011.0 |
| 20260507010925 | 20 | 154 | 0.0 | 0.0 | 0.00 | 0.58 | 0.58 | 81 | 1011.0 |
| 20260507010421 | 20 | 158 | 0.0 | 0.0 | 0.00 | 0.58 | 0.58 | 81 | 1011.2 |
| 20260507005918 | 20 | 156 | 0.0 | 0.0 | 0.00 | 0.58 | 0.58 | 81 | 1011.0 |
| 20260507005415 | 20 | 154 | 0.0 | 0.0 | 0.00 | 0.58 | 0.58 | 81 | 1011.0 |
| 20260507004911 | 20 | 149 | 0.0 | 0.0 | 0.00 | 0.58 | 0.58 | 81 | 1010.7 |
| 20260507004408 | 20 | 144 | 0.0 | 0.0 | 0.00 | 0.58 | 0.58 | 81 | 1010.7 |
| 20260507003906 | 20 | 169 | 0.0 | 0.0 | 0.00 | 0.58 | 0.58 | 81 | 1010.8 |
| 20260507003401 | 20 | 161 | 0.0 | 0.0 | 0.00 | 0.58 | 0.58 | 80 | 1010.4 |
| 20260507002856 | 20 | 164 | 0.0 | 0.0 | 0.00 | 0.58 | 0.58 | 80 | 1010.5 |
| 20260507002352 | 20 | 160 | 0.0 | 0.0 | 0.00 | 0.58 | 0.58 | 80 | 1010.6 |
| 20260507001850 | 20 | 156 | 0.0 | 0.0 | 0.00 | 0.58 | 0.58 | 80 | 1010.4 |
| 20260507001346 | 20 | 156 | 0.0 | 0.0 | 0.00 | 0.58 | 0.58 | 80 | 1010.4 |
| 20260507000843 | 20 | 159 | 0.0 | 0.0 | 0.00 | 0.58 | 0.58 | 79 | 1010.2 |
| 20260507000338 | 21 | 160 | 0.0 | 0.0 | 0.00 | 0.58 | 0.58 | 79 | 1010.4 |
| 20260506235835 | 21 | 159 | 0.0 | 0.0 | 0.00 | 0.58 | 0.58 | 79 | 1010.5 |
| 20260506235332 | 21 | 159 | 0.0 | 0.0 | 0.00 | 0.58 | 0.58 | 79 | 1010.2 |
| 20260506234828 | 21 | 159 | 0.0 | 0.0 | 0.00 | 0.58 | 0.58 | 79 | 1010.2 |
| 20260506234326 | 21 | 174 | 0.0 | 0.0 | 0.00 | 0.58 | 0.58 | 78 | 1010.1 |
| 20260506233823 | 21 | 161 | 0.0 | 0.0 | 0.00 | 0.58 | 0.58 | 78 | 1010.0 |
| 20260506233319 | 21 | 184 | 0.0 | 0.0 | 0.00 | 0.58 | 0.58 | 78 | 1010.0 |
| 20260506232816 | 21 | 211 | 0.0 | 1.6 | 0.00 | 0.58 | 0.58 | 78 | 1010.1 |
| 20260506232311 | 21 | 154 | 0.0 | 1.6 | 0.00 | 0.58 | 0.58 | 78 | 1009.9 |
| 20260506231809 | 21 | 192 | 1.6 | 3.2 | 0.00 | 0.58 | 0.58 | 77 | 1009.9 |
| 20260506231307 | 21 | 234 | 1.6 | 1.6 | 0.00 | 0.58 | 0.58 | 77 | 1009.8 |
| 20260506230804 | 21 | 177 | 0.0 | 1.6 | 0.00 | 0.58 | 0.58 | 77 | 1010.0 |
| 20260506230300 | 21 | 239 | 1.6 | 3.2 | 0.00 | 0.58 | 0.58 | 77 | 1010.0 |
| 20260506225756 | 21 | 170 | 0.0 | 0.0 | 0.00 | 0.58 | 0.58 | 77 | 1009.8 |